sat.trackr.live / text

‹ back to catalog

STARLINK-5958

NORAD 56921 · 2023-083AX

PAYLOAD ACTIVE UNKNOWN

§ Identity

Operator
Country
US
Launch date
2023-06-12
Launch site
AFETR
Launch vehicle
Mass (kg)
RCS (m²)

Purposes: comms

External: N2YO · Heavens-Above · Gunter

§ Orbital elements

Epoch: 2026-05-24T22:39:11.112768Z

Period
94.27 min
Inclination
43.0016°
Eccentricity
0.0001416
Mean motion
15.27575912 rev/d
Perigee alt
482.1 km
Apogee alt
484.0 km
Semi-major
6,861.2 km
B*
5.9258e-5
RAAN
359.7384°
Arg perigee
265.9973°
Mean anomaly
94.0717°
Rev number
16,346

§ Raw data

STARLINK-59581 56921U 23083AX  26144.94387862  .00001369  00000+0  59258-4 0  99942 56921  43.0016 359.7384 0001416 265.9973  94.0717 15.27575912163463

JSON: /api/v1/satellites/56921 · /tle

For live sub-satellite position, see the globe view (requires WebGL).

§ Visibility from observer

Set your observer location to see the next 7 days of passes ≥ 10°. The values pass through the URL so the page stays shareable.

No JS? Fill the form by hand. The geolocation button needs JavaScript.